Location: Unspecified
(41.5516°N, 88.1098°W)
Time: 19:25:06
(UTC-05:00)

Okean 3 - Visible Passes

Search period start: 31 October 2014 00:00
Search period end: 09 November 2014 23:00
Orbit: 583 x 609 km, 82.5° (Epoch: 31 October)

Date Brightness Start Highest point End Pass type
(mag) Time Alt. Az. Time Alt. Az. Time Alt. Az.
02 Nov 6.5 05:11:09 10° NE 05:13:23 14° ENE 05:15:37 10° ESE visible
03 Nov 6.2 05:20:24 10° NNE 05:23:40 21° ENE 05:26:53 10° ESE visible
04 Nov 5.4 05:30:03 10° NNE 05:33:53 32° ENE 05:37:40 10° SE visible
04 Nov 6.2 19:34:46 10° SW 19:35:18 13° SW 19:35:18 13° SW visible
05 Nov 4.4 05:39:54 10° N 05:44:02 51° E 05:48:07 10° SSE visible
05 Nov 4.7 18:07:48 10° SSE 18:10:15 25° ESE 18:10:15 25° ESE visible
05 Nov 6.1 19:45:30 10° SW 19:47:02 17° WSW 19:47:02 17° WSW visible
06 Nov 3.6 05:49:53 10° N 05:54:09 83° E 05:58:20 10° S visible
06 Nov 3.7 18:17:24 10° SSE 18:21:32 46° E 18:21:59 44° ENE visible
06 Nov 6.4 19:56:40 10° WSW 19:58:46 15° WNW 19:58:46 15° WNW visible
07 Nov 6.7 04:25:04 10° NE 04:26:22 11° ENE 04:27:40 10° E visible
07 Nov 3.5 06:00:01 10° NNW 06:04:11 61° W 06:08:19 10° S visible
07 Nov 3.3 18:27:15 10° S 18:31:34 75° E 18:33:41 29° NNE visible
08 Nov 6.3 04:33:50 10° NNE 04:36:39 17° ENE 04:39:27 10° ESE visible
08 Nov 3.7 18:37:20 10° SSW 18:41:38 68° W 18:45:16 14° N visible
09 Nov 5.7 04:43:18 10° NNE 04:46:52 26° ENE 04:50:25 10° SE visible
09 Nov 5.1 17:12:12 10° ESE 17:14:45 16° E 17:17:18 10° NE visible
09 Nov 4.7 18:47:38 10° SSW 18:51:45 42° WNW 18:55:51 10° N visible
